Broughton Island Airport, Nunavut

10:52 AM ADT on July 27, 2017 (GMT -0300)
Broughton Island Airport

Weather History for CYVM - April, 2014

Change the Weather History Date:

Thursday, April 24, 2014

  Actual Average Record
Temperature  
Mean Temperature -6 °F -  
Max Temperature 4 °F 12 °F 19 °F (1997)
Min Temperature -16 °F 2 °F -14 °F (2011)
Degree Days  
Heating Degree Days 71    
Moisture  
Dew Point -7 °F    
Average Humidity 79    
Maximum Humidity 92    
Minimum Humidity 63    
Precipitation  
Precipitation 0.00 in - - ()
Sea Level Pressure  
Sea Level Pressure 30.27 in    
Wind  
Wind Speed 1 mph ()    
Max Wind Speed 6 mph    
Max Gust Speed -    
Visibility 10.9 miles    
Events Snow    
Averages and records for this station are not official NWS values.
T = Trace of Precipitation, MM = Missing Value Source: Averaged Metar Reports

Daily Weather History Graph

Daily Weather History Graph

Search for Another Location

Airport or City:

Trip Planner

Search our weather history database for the weather conditions in past years. The results will help you decide how hot, cold, wet, or windy it might be!

Date:

Astronomy

Apr. 24, 2014 Rise Set
Actual Time 4:49 AM ADT 9:42 PM ADT
Civil Twilight 3:28 AM ADT 11:04 PM ADT
Nautical Twilight Sun does not set Sun does not set
Astronomical Twilight Sun does not set Sun does not set
Moon 4:22 AM ADT (4/24) 2:38 PM ADT (4/24)
Length of Visible Light 19h 36m
Length of Day
16h 53m
Waning Crescent, 25% of the Moon is Illuminated
Apr 24
Waning Crescent
Apr 29
New
May 7
First Quarter
May 14
Full
May 21
Last Quarter

Hourly Weather History & Observations

Time (ADT) Temp. Windchill Dew Point Humidity Pressure Visibility Wind Dir Wind Speed Gust Speed Precip Events Conditions
12:00 AM -0.4 °F - -5.8 °F 78% 30.20 in 9.0 mi Calm Calm - N/A   Clear
1:00 AM -2.2 °F - -5.8 °F 85% 30.20 in 9.0 mi Calm Calm - N/A   Clear
2:00 AM -5.8 °F - -13.0 °F 71% 30.22 in 9.0 mi Variable 2.3 mph - N/A   Clear
3:00 AM -13 °F - -19 °F 63% 30.22 in 10 mi East 1.2 mph - -  
3:00 AM -13.0 °F - -18.4 °F 77% 30.22 in 9.0 mi Calm Calm - N/A   Clear
4:00 AM -11.2 °F - -13.0 °F 92% 30.23 in 9.0 mi Variable 2.3 mph - N/A   Clear
5:00 AM -11.2 °F - -16.6 °F 77% 30.24 in 9.0 mi NNE 2.3 mph - N/A   Clear
6:00 AM -5.8 °F - -11.2 °F 77% 30.24 in 9.0 mi North 2.3 mph - N/A   Clear
7:00 AM -4.0 °F - -7.6 °F 85% 30.25 in 9.0 mi NNW 2.3 mph - N/A   Clear
8:00 AM -4.0 °F - -7.6 °F 85% 30.25 in 9.0 mi Calm Calm - N/A   Clear
9:00 AM -7 °F - -12 °F 68% 30.27 in 10 mi ENE 2.3 mph - -  
9:00 AM -5.8 °F - -11.2 °F 77% 30.26 in 9.0 mi ENE 2.3 mph - N/A   Clear
10:00 AM -4.0 °F -16.3 °F -9.4 °F 78% 30.27 in 15.0 mi East 5.8 mph - N/A   Ice Crystals
11:00 AM -2.2 °F -10.4 °F -7.6 °F 78% 30.27 in 15.0 mi North 3.5 mph - N/A   Ice Crystals
12:00 PM 1.4 °F - -4.0 °F 78% 30.28 in 15.0 mi East 2.3 mph - N/A   Ice Crystals
1:00 PM 3.2 °F - -4.0 °F 72% 30.28 in 15.0 mi NE 2.3 mph - N/A   Ice Crystals
2:00 PM 3.2 °F - -2.2 °F 78% 30.28 in 15.0 mi Calm Calm - N/A   Ice Crystals
3:00 PM 4 °F - -1 °F 70% 30.28 in 10 mi ENE 3.5 mph - -  
3:00 PM 5.0 °F -2.1 °F -0.4 °F 78% 30.28 in 15.0 mi ENE 3.5 mph - N/A   Ice Crystals
4:00 PM 5.0 °F -2.1 °F -0.4 °F 78% 30.29 in 25.0 mi ENE 3.5 mph - N/A   Ice Crystals
5:00 PM 5.0 °F -2.1 °F -0.4 °F 78% 30.29 in 15.0 mi ENE 3.5 mph - N/A   Ice Crystals
6:00 PM 5.0 °F - -0.4 °F 78% 30.29 in 15.0 mi NE 2.3 mph - N/A   Ice Crystals
7:00 PM 3.2 °F - -2.2 °F 78% 30.30 in 15.0 mi Variable 2.3 mph - N/A   Ice Crystals
7:02 PM 1.4 °F - -2.2 °F 85% 30.30 in 6.0 mi Variable 2.3 mph - N/A Snow Light Snow
7:17 PM 1.4 °F - -2.2 °F 85% 30.30 in 9.0 mi Calm Calm - N/A   Partly Cloudy
8:00 PM -0.4 °F - -4.0 °F 85% 30.30 in 9.0 mi Calm Calm - N/A   Clear
9:00 PM -1 °F - -4 °F 80% 30.30 in 10 mi ENE 1.2 mph - -  
9:00 PM -0.4 °F - -4.0 °F 85% 30.30 in 9.0 mi Calm Calm - N/A   Clear
10:00 PM -9.4 °F - -14.8 °F 77% 30.30 in 9.0 mi SW 2.3 mph - N/A   Clear
11:00 PM -4.0 °F - -7.6 °F 85% 30.30 in 9.0 mi Calm Calm - N/A   Clear